timestamp,wind_dir_avg,wind_spd_avg,wind_spd_max_dir,wind_spd_gust,battery_voltage,lat,long
2023-05-10 00:04:00+00:00,269.0,12.96,270.0,15.22,12.97,47.59359,-54.27349
2023-05-10 00:14:00+00:00,279.0,12.78,280.0,14.93,12.41,47.59359,-54.27349
2023-05-10 00:24:00+00:00,276.0,12.71,273.0,14.84,12.41,47.59359,-54.27349
2023-05-10 00:34:00+00:00,269.0,12.8,271.0,14.56,12.41,47.59359,-54.27349
2023-05-10 00:44:00+00:00,272.0,12.63,275.0,14.74,12.41,47.59359,-54.27349
2023-05-10 00:54:00+00:00,271.0,13.26,273.0,14.91,12.41,47.59359,-54.27349
2023-05-10 01:04:00+00:00,272.0,13.23,272.0,14.51,12.41,47.59359,-54.27349
2023-05-10 01:14:00+00:00,270.0,13.08,272.0,15.08,12.33,47.59359,-54.27349
2023-05-10 01:24:00+00:00,269.0,13.31,274.0,14.52,12.33,47.59359,-54.27349
2023-05-10 01:34:00+00:00,269.0,13.28,271.0,15.24,12.33,47.59359,-54.27349
2023-05-10 01:44:00+00:00,275.0,13.39,283.0,14.99,12.33,47.59359,-54.27349
2023-05-10 01:54:00+00:00,262.0,13.11,256.0,15.45,12.33,47.59359,-54.27349
2023-05-10 02:04:00+00:00,271.0,13.34,275.0,16.0,12.33,47.59359,-54.27349
2023-05-10 02:14:00+00:00,268.0,13.04,263.0,14.29,12.33,47.59359,-54.27349
2023-05-10 02:24:00+00:00,266.0,12.98,268.0,14.35,12.33,47.59359,-54.27349
2023-05-10 02:34:00+00:00,266.0,12.86,266.0,17.71,12.33,47.59359,-54.27349
2023-05-10 02:44:00+00:00,259.0,13.03,253.0,14.97,12.33,47.59359,-54.27349
2023-05-10 02:54:00+00:00,262.0,12.61,262.0,13.84,12.33,47.59359,-54.27349
2023-05-10 03:04:00+00:00,269.0,13.18,277.0,15.96,12.33,47.59359,-54.27349
2023-05-10 03:14:00+00:00,272.0,12.28,282.0,14.04,12.33,47.59359,-54.27349
2023-05-10 03:24:00+00:00,267.0,12.3,267.0,14.51,12.33,47.59359,-54.27349
2023-05-10 03:34:00+00:00,276.0,12.95,288.0,16.95,12.33,47.59359,-54.27349
2023-05-10 03:44:00+00:00,267.0,12.3,263.0,14.33,12.33,47.59359,-54.27349
2023-05-10 03:54:00+00:00,272.0,13.25,277.0,15.4,12.33,47.59359,-54.27349
2023-05-10 04:04:00+00:00,271.0,13.62,272.0,15.25,12.33,47.59359,-54.27349
2023-05-10 04:14:01+00:00,272.0,13.5,277.0,15.14,12.25,47.59359,-54.27349
2023-05-10 04:24:01+00:00,264.0,12.78,255.0,16.64,12.25,47.59359,-54.27349
2023-05-10 04:34:01+00:00,273.0,11.85,275.0,15.15,12.25,47.59359,-54.27349
2023-05-10 04:44:01+00:00,270.0,11.12,274.0,13.12,12.25,47.59359,-54.27349
2023-05-10 04:54:01+00:00,266.0,12.76,271.0,14.13,12.25,47.59359,-54.27349
2023-05-10 05:04:01+00:00,266.0,11.68,264.0,14.38,12.25,47.59359,-54.27349
2023-05-10 05:14:01+00:00,262.0,9.39,270.0,12.69,12.25,47.59359,-54.27349
2023-05-10 05:24:01+00:00,255.0,9.19,259.0,10.7,12.25,47.59359,-54.27349
2023-05-10 05:34:01+00:00,258.0,10.54,262.0,12.97,12.25,47.59359,-54.27349
2023-05-10 05:44:01+00:00,253.0,9.58,252.0,10.73,12.25,47.59359,-54.27349
2023-05-10 05:54:01+00:00,254.0,10.69,255.0,12.74,12.25,47.59359,-54.27349
2023-05-10 06:04:01+00:00,259.0,10.7,261.0,12.73,12.25,47.59359,-54.27349
2023-05-10 06:14:01+00:00,262.0,9.49,255.0,11.12,12.25,47.59359,-54.27349
2023-05-10 06:24:01+00:00,259.0,9.49,261.0,11.04,12.25,47.59359,-54.27349
2023-05-10 06:34:01+00:00,261.0,11.31,264.0,12.44,12.25,47.59359,-54.27349
2023-05-10 06:44:01+00:00,264.0,9.97,264.0,11.73,12.25,47.59359,-54.27349
2023-05-10 06:54:01+00:00,262.0,10.55,260.0,12.27,12.25,47.59359,-54.27349
2023-05-10 07:04:01+00:00,269.0,11.61,272.0,13.1,12.25,47.59359,-54.27349
2023-05-10 07:14:01+00:00,265.0,10.85,261.0,12.44,12.17,47.59359,-54.27349
2023-05-10 07:24:01+00:00,266.0,9.87,268.0,11.94,12.17,47.59359,-54.27349
2023-05-10 07:34:01+00:00,252.0,8.41,265.0,9.83,12.17,47.59359,-54.27349
2023-05-10 07:44:01+00:00,243.0,9.07,242.0,10.4,12.17,47.59359,-54.27349
2023-05-10 07:54:01+00:00,242.0,7.84,245.0,8.54,12.17,47.59359,-54.27349
2023-05-10 08:04:01+00:00,253.0,8.48,251.0,9.61,12.17,47.59359,-54.27349
2023-05-10 08:14:01+00:00,253.0,7.93,256.0,9.0,12.17,47.59359,-54.27349
2023-05-10 08:24:01+00:00,255.0,7.63,256.0,8.79,12.17,47.59359,-54.27349
2023-05-10 08:34:01+00:00,260.0,7.84,261.0,9.81,12.17,47.59359,-54.27349
2023-05-10 08:44:01+00:00,266.0,8.18,270.0,9.5,12.17,47.59359,-54.27349
2023-05-10 08:54:01+00:00,269.0,9.09,272.0,11.41,12.17,47.59359,-54.27349
2023-05-10 09:04:01+00:00,264.0,7.86,266.0,9.13,12.17,47.59359,-54.27349
2023-05-10 09:14:00+00:00,267.0,7.69,263.0,8.69,12.41,47.59359,-54.27349
2023-05-10 09:24:00+00:00,266.0,8.56,266.0,10.75,12.41,47.59359,-54.27349
2023-05-10 09:34:00+00:00,272.0,8.95,264.0,11.1,12.41,47.59359,-54.27349
2023-05-10 09:44:00+00:00,271.0,9.16,276.0,11.08,12.41,47.59359,-54.27349
2023-05-10 09:54:00+00:00,274.0,9.8,276.0,11.73,12.41,47.59359,-54.27349
2023-05-10 10:04:00+00:00,270.0,10.75,273.0,12.2,12.41,47.59359,-54.27349
2023-05-10 10:14:00+00:00,271.0,9.84,273.0,11.69,13.37,47.59359,-54.27349
2023-05-10 10:24:00+00:00,276.0,9.24,279.0,11.29,13.37,47.59359,-54.27349
2023-05-10 10:34:00+00:00,271.0,11.15,272.0,14.49,13.37,47.59359,-54.27349
2023-05-10 10:44:00+00:00,276.0,10.58,275.0,13.08,13.37,47.59359,-54.27349
2023-05-10 10:54:00+00:00,270.0,10.63,270.0,12.41,13.37,47.59359,-54.27349
2023-05-10 11:04:00+00:00,271.0,10.35,272.0,12.44,13.37,47.59359,-54.27349
2023-05-10 11:14:01+00:00,277.0,10.95,278.0,12.44,13.6,47.59359,-54.27349
2023-05-10 11:24:01+00:00,276.0,10.28,276.0,11.86,13.6,47.59359,-54.27349
2023-05-10 11:34:01+00:00,278.0,11.2,276.0,13.63,13.6,47.59359,-54.27349
2023-05-10 11:44:01+00:00,272.0,9.35,268.0,11.95,13.6,47.59359,-54.27349
2023-05-10 11:54:01+00:00,266.0,11.36,268.0,13.17,13.6,47.59359,-54.27349
2023-05-10 12:04:01+00:00,271.0,12.22,273.0,14.95,13.6,47.59359,-54.27349
2023-05-10 12:14:01+00:00,265.0,11.25,270.0,13.57,14.32,47.59359,-54.27349
2023-05-10 12:24:01+00:00,261.0,10.94,262.0,12.22,14.32,47.59359,-54.27349
2023-05-10 12:34:01+00:00,262.0,10.14,257.0,11.97,14.32,47.59359,-54.27349
2023-05-10 12:44:01+00:00,272.0,11.47,273.0,17.31,14.32,47.59359,-54.27349
2023-05-10 12:54:01+00:00,276.0,10.11,277.0,11.29,14.32,47.59359,-54.27349
2023-05-10 13:04:01+00:00,271.0,11.11,268.0,12.51,14.32,47.59359,-54.27349
2023-05-10 13:14:00+00:00,267.0,9.23,265.0,11.5,13.68,47.59359,-54.27349
2023-05-10 13:24:00+00:00,266.0,11.42,272.0,15.65,13.68,47.59359,-54.27349
2023-05-10 13:34:00+00:00,277.0,10.44,278.0,11.82,13.68,47.59359,-54.27349
2023-05-10 13:44:00+00:00,275.0,11.66,277.0,13.88,13.68,47.59359,-54.27349
2023-05-10 13:54:00+00:00,268.0,10.26,271.0,11.64,13.68,47.59359,-54.27349
2023-05-10 14:04:00+00:00,272.0,9.04,274.0,10.56,13.68,47.59359,-54.27349
2023-05-10 14:14:00+00:00,267.0,9.46,263.0,10.96,14.4,47.59359,-54.27349
2023-05-10 14:24:00+00:00,258.0,11.22,255.0,12.84,14.4,47.59359,-54.27349
2023-05-10 14:34:00+00:00,266.0,11.02,263.0,12.49,14.4,47.59359,-54.27349
2023-05-10 14:44:00+00:00,268.0,10.65,270.0,13.45,14.4,47.59359,-54.27349
2023-05-10 14:54:00+00:00,271.0,9.2,274.0,12.18,14.4,47.59359,-54.27349
2023-05-10 15:04:00+00:00,264.0,11.63,267.0,13.35,14.4,47.59359,-54.27349
2023-05-10 15:14:01+00:00,278.0,9.7,274.0,12.88,14.32,47.59359,-54.27349
2023-05-10 15:24:01+00:00,261.0,11.35,261.0,12.45,14.32,47.59359,-54.27349
2023-05-10 15:34:01+00:00,260.0,9.85,259.0,13.2,14.32,47.59359,-54.27349
2023-05-10 15:44:01+00:00,267.0,11.37,267.0,13.91,14.32,47.59359,-54.27349
2023-05-10 15:54:01+00:00,261.0,8.15,264.0,9.3,14.32,47.59359,-54.27349
2023-05-10 16:04:01+00:00,252.0,8.66,257.0,11.57,14.32,47.59359,-54.27349
2023-05-10 16:14:01+00:00,252.0,9.18,259.0,12.2,14.08,47.59359,-54.27349
2023-05-10 16:24:01+00:00,253.0,8.69,256.0,11.44,14.08,47.59359,-54.27349
2023-05-10 16:34:01+00:00,258.0,8.36,258.0,11.82,14.08,47.59359,-54.27349
2023-05-10 16:44:01+00:00,265.0,7.09,264.0,7.9,14.08,47.59359,-54.27349
2023-05-10 16:54:01+00:00,262.0,10.13,266.0,12.92,14.08,47.59359,-54.27349
2023-05-10 17:04:01+00:00,263.0,13.3,266.0,14.68,14.08,47.59359,-54.27349
2023-05-10 17:14:00+00:00,266.0,14.18,268.0,15.08,13.44,47.59359,-54.27349
2023-05-10 17:24:00+00:00,279.0,14.27,282.0,15.63,13.44,47.59359,-54.27349
2023-05-10 17:34:00+00:00,257.0,8.1,255.0,10.64,13.44,47.59359,-54.27349
2023-05-10 17:44:00+00:00,254.0,13.2,255.0,14.76,13.44,47.59359,-54.27349
2023-05-10 17:54:00+00:00,254.0,13.36,256.0,14.86,13.44,47.59359,-54.27349
2023-05-10 18:04:00+00:00,256.0,12.46,255.0,14.36,13.44,47.59359,-54.27349
2023-05-10 18:14:00+00:00,253.0,10.61,254.0,13.74,14.0,47.59359,-54.27349
2023-05-10 18:24:00+00:00,258.0,11.58,264.0,14.6,14.0,47.59359,-54.27349
2023-05-10 18:34:00+00:00,249.0,11.78,250.0,14.47,14.0,47.59359,-54.27349
2023-05-10 18:44:00+00:00,258.0,12.77,264.0,14.75,14.0,47.59359,-54.27349
2023-05-10 18:54:00+00:00,254.0,12.68,261.0,14.29,14.0,47.59359,-54.27349
2023-05-10 19:04:00+00:00,257.0,12.43,259.0,14.78,14.0,47.59359,-54.27349
2023-05-10 19:14:00+00:00,247.0,11.91,248.0,14.37,13.6,47.59359,-54.27349
2023-05-10 19:24:00+00:00,249.0,9.57,256.0,12.78,13.6,47.59359,-54.27349
2023-05-10 19:34:00+00:00,255.0,12.24,258.0,14.5,13.6,47.59359,-54.27349
2023-05-10 19:44:00+00:00,256.0,11.44,256.0,13.94,13.6,47.59359,-54.27349
2023-05-10 19:54:00+00:00,247.0,7.54,242.0,8.17,13.6,47.59359,-54.27349
2023-05-10 20:04:00+00:00,246.0,11.31,248.0,14.71,13.6,47.59359,-54.27349
2023-05-10 20:14:01+00:00,255.0,7.65,259.0,8.9,13.76,47.59359,-54.27349
2023-05-10 20:24:01+00:00,266.0,13.57,267.0,14.83,13.76,47.59359,-54.27349
2023-05-10 20:34:01+00:00,270.0,10.16,271.0,13.79,13.76,47.59359,-54.27349
2023-05-10 20:44:01+00:00,266.0,11.93,268.0,16.73,13.76,47.59359,-54.27349
2023-05-10 20:54:01+00:00,263.0,7.37,256.0,8.51,13.76,47.59359,-54.27349
2023-05-10 21:04:01+00:00,260.0,12.59,258.0,14.66,13.76,47.59359,-54.27349
2023-05-10 21:14:01+00:00,261.0,13.28,260.0,15.11,13.68,47.59359,-54.27349
2023-05-10 21:24:01+00:00,256.0,13.22,257.0,14.78,13.68,47.59359,-54.27349
2023-05-10 21:34:01+00:00,249.0,9.01,254.0,13.11,13.68,47.59359,-54.27349
2023-05-10 21:44:01+00:00,258.0,13.39,260.0,15.06,13.68,47.59359,-54.27349
2023-05-10 21:54:01+00:00,250.0,7.5,248.0,8.06,13.68,47.59359,-54.27349
2023-05-10 22:04:01+00:00,251.0,8.18,253.0,8.94,13.68,47.59359,-54.27349
2023-05-10 22:14:01+00:00,246.0,8.23,250.0,10.93,13.37,47.59359,-54.27349
2023-05-10 22:24:01+00:00,257.0,7.72,259.0,8.35,13.37,47.59359,-54.27349
2023-05-10 22:34:01+00:00,244.0,6.44,247.0,7.27,13.37,47.59359,-54.27349
2023-05-10 22:44:01+00:00,240.0,7.63,241.0,8.27,13.37,47.59359,-54.27349
2023-05-10 22:54:01+00:00,247.0,7.89,252.0,9.22,13.37,47.59359,-54.27349
2023-05-10 23:04:01+00:00,245.0,7.29,246.0,7.97,13.37,47.59359,-54.27349
2023-05-10 23:14:00+00:00,242.0,7.26,240.0,7.84,12.89,47.59359,-54.27349
2023-05-10 23:24:00+00:00,247.0,7.35,245.0,8.3,12.89,47.59359,-54.27349
2023-05-10 23:34:00+00:00,240.0,7.21,241.0,8.08,12.89,47.59359,-54.27349
2023-05-10 23:44:00+00:00,234.0,7.15,232.0,7.96,12.89,47.59359,-54.27349
2023-05-10 23:54:00+00:00,234.0,7.58,236.0,8.29,12.89,47.59359,-54.27349
